Tracking 19476 objects as of 16-Jan-2019
HD Live streaming from Space Station
objects crossing your sky now

TDRS 7

Track TDRS 7 now!
TDRS 7 is classified as:


NORAD ID: 23613
Int'l Code: 1995-035B
Perigee: 35,662.9 km
Apogee: 35,921.4 km
Inclination: 14.5 °
Period: 1,436.0 minutes
Semi major axis: 42163 km
RCS: 19.9526 m2 (large)
Launch date: July 13, 1995
Source: United States (US)
Launch site: AIR FORCE EASTERN TEST RANGE (AFETR)

Tracking and communications with space shuttle, other missions.
aabbcc
Your satellite tracking list
Your tracking list is empty




NASA's NSSDC Master Catalog

Two Line Element Set (TLE):
1 23613U 95035B   19016.49413332 -.00000194  00000-0  00000+0 0  9997
2 23613  14.5082   9.2400 0030653   9.1029 359.8354  1.00277383 85999
Source of the keplerian elements: AFSPC